Погода в Тирунелвели

Индия     8°43′23″N   77°41′21″E
темп.,
°C
ветер,
м/с
пор.,
м/с
влажн.,
%
обл.,
%
осадки,
мм/ч
давл.,
гПа
погр.,
м
15 мая, сб
сб1523:30+25ююз2389100 4.5 1007256
02:30+24ююз3991100 9.8 1005359
05:30+25ююз2386100 11.3 1004233
08:30+28ююз3675100 0.2 1007334
11:30+29юз2462100 1.0 1006800
14:30+30ю3456100 0.1 1004984
17:30+29ююз4569100 0.5 1004416
20:30+26сз5585100 3.2 1007388
16 мая, вс
вс1623:30+25юз0286100 5.1 1007182
02:30+26зюз1284100 0.1 1004162
05:30+26сз3586100 0.1 1005339
08:30+26сз3484100 0.2 1008266
11:30+29з3569100 0.3 1007680
14:30+29зсз3463100 0.0 1005700
17:30+29зсз466491 0.0 1005383
20:30+27з3674100 0.0 1007175
17 мая, пн
пн1723:30+27зюз2374100 0.0 100756
02:30+26з2273100 0.0 100539
05:30+26юз1174100 0.0 100627
08:30+28зсз2268100 0.0 1008198
11:30+32з3350100 0.0 10081050
14:30+35сз4441100 0.0 10042049
17:30+34зсз654336 0.0 10041293
20:30+30з56635 0.0 1006439
18 мая, вт
вт1823:30+29з34680 0.0 1007266
02:30+28з23705 0.0 1005118
05:30+27зюз1170100 0.0 100635
08:30+30зюз2259100 0.0 1007476
11:30+33зсз124418 0.0 10071433
14:30+36юз123871 0.0 10032413
17:30+35зюз554360 0.4 10041372
20:30+31зюз44585 0.1 1007598
19 мая, ср
ср1923:30+30юз226269 0.1 1007348
02:30+29з1266100 0.0 1005235
05:30+28з1269100 0.0 1006114
08:30+30з2260100 0.0 1008551
11:30+34ю124627 0.0 10071493
14:30+36ююв223996 0.5 10032202
17:30+34юз444676 1.3 10041233
20:30+31ююз556297 0.0 1007504